Time,TemperatureF,DewpointF,PressureIn,WindDirection,WindDirectionDegrees,WindSpeedMPH,WindSpeedGustMPH,Humidity,HourlyPrecipIn,Conditions,Clouds,dailyrainin,SoftwareType,DateUTC
2013-02-12 00:02:00,46.0,-99.9,29.72,NW,309,17.0,20.0,-999,-99.99,,,-99.99,,2013-02-12 05:02:00,
2013-02-12 00:11:00,46.0,-99.9,29.72,NW,306,15.0,18.0,-999,-99.99,,,-99.99,,2013-02-12 05:11:00,
2013-02-12 00:22:00,45.0,-99.9,29.73,NW,313,12.0,17.0,-999,-99.99,,,-99.99,,2013-02-12 05:22:00,
2013-02-12 00:32:00,44.0,-99.9,29.74,NNW,330,11.0,22.0,-999,-99.99,,,-99.99,,2013-02-12 05:32:00,
2013-02-12 00:42:00,45.0,-99.9,29.75,NNW,338,11.0,23.0,-999,-99.99,,,-99.99,,2013-02-12 05:42:00,
2013-02-12 00:52:00,44.0,-99.9,29.76,NNW,336,8.0,17.0,-999,-99.99,,,-99.99,,2013-02-12 05:52:00,
2013-02-12 01:02:00,44.0,-99.9,29.76,NNW,336,8.0,17.0,-999,-99.99,,,-99.99,,2013-02-12 06:02:00,
2013-02-12 01:12:00,44.0,-99.9,29.76,NNW,336,8.0,17.0,-999,-99.99,,,-99.99,,2013-02-12 06:12:00,
2013-02-12 01:22:00,44.0,-99.9,29.76,NNW,336,8.0,17.0,-999,-99.99,,,-99.99,,2013-02-12 06:22:00,
2013-02-12 01:42:00,42.0,-99.9,29.78,NNW,342,10.0,15.0,-999,-99.99,,,-99.99,,2013-02-12 06:42:00,
2013-02-12 01:52:00,42.0,-99.9,29.80,NNW,343,9.0,15.0,-999,-99.99,,,-99.99,,2013-02-12 06:52:00,
2013-02-12 02:02:00,42.0,-99.9,29.80,NNW,344,6.0,12.0,-999,-99.99,,,-99.99,,2013-02-12 07:02:00,
2013-02-12 02:12:00,41.0,-99.9,29.80,North,356,9.0,14.0,-999,-99.99,,,-99.99,,2013-02-12 07:12:00,
2013-02-12 02:22:00,42.0,-99.9,29.81,North,356,9.0,16.0,-999,-99.99,,,-99.99,,2013-02-12 07:22:00,
2013-02-12 02:32:00,42.0,-99.9,29.80,North,360,10.0,15.0,-999,-99.99,,,-99.99,,2013-02-12 07:32:00,
2013-02-12 02:42:00,42.0,-99.9,29.80,North,360,10.0,15.0,-999,-99.99,,,-99.99,,2013-02-12 07:42:00,
2013-02-12 02:52:00,42.0,-99.9,29.80,North,360,10.0,15.0,-999,-99.99,,,-99.99,,2013-02-12 07:52:00,
2013-02-12 03:11:00,42.0,-99.9,29.82,North,1,11.0,15.0,-999,-99.99,,,-99.99,,2013-02-12 08:11:00,
2013-02-12 03:22:00,42.0,-99.9,29.82,North,356,9.0,18.0,-999,-99.99,,,-99.99,,2013-02-12 08:22:00,
2013-02-12 03:32:00,42.0,-99.9,29.82,North,357,7.0,12.0,-999,-99.99,,,-99.99,,2013-02-12 08:32:00,
2013-02-12 03:42:00,41.0,-99.9,29.83,NNW,348,5.0,9.0,-999,-99.99,,,-99.99,,2013-02-12 08:42:00,
2013-02-12 03:52:00,41.0,-99.9,29.82,North,352,6.0,10.0,-999,-99.99,,,-99.99,,2013-02-12 08:52:00,
2013-02-12 04:02:00,41.0,-99.9,29.83,NNW,348,6.0,10.0,-999,-99.99,,,-99.99,,2013-02-12 09:02:00,
2013-02-12 04:11:00,41.0,-99.9,29.83,NNW,348,4.0,10.0,-999,-99.99,,,-99.99,,2013-02-12 09:11:00,
2013-02-12 04:22:00,41.0,-99.9,29.83,North,350,4.0,9.0,-999,-99.99,,,-99.99,,2013-02-12 09:22:00,
2013-02-12 04:32:00,41.0,-99.9,29.83,NNW,338,4.0,6.0,-999,-99.99,,,-99.99,,2013-02-12 09:32:00,
2013-02-12 04:42:00,40.0,-99.9,29.83,North,357,7.0,10.0,-999,-99.99,,,-99.99,,2013-02-12 09:42:00,
2013-02-12 04:52:00,40.0,-99.9,29.83,NNW,342,9.0,16.0,-999,-99.99,,,-99.99,,2013-02-12 09:52:00,
2013-02-12 05:02:00,41.0,-99.9,29.83,NNW,347,10.0,16.0,-999,-99.99,,,-99.99,,2013-02-12 10:02:00,
2013-02-12 05:11:00,42.0,-99.9,29.84,NNW,337,8.0,14.0,-999,-99.99,,,-99.99,,2013-02-12 10:11:00,
2013-02-12 05:22:00,41.0,-99.9,29.85,NNW,336,5.0,9.0,-999,-99.99,,,-99.99,,2013-02-12 10:22:00,
2013-02-12 05:32:00,41.0,-99.9,29.85,NNW,337,5.0,11.0,-999,-99.99,,,-99.99,,2013-02-12 10:32:00,
2013-02-12 05:43:00,40.0,-99.9,29.86,NNW,332,5.0,8.0,-999,-99.99,,,-99.99,,2013-02-12 10:43:00,
2013-02-12 05:52:00,41.0,-99.9,29.87,NW,324,8.0,11.0,-999,-99.99,,,-99.99,,2013-02-12 10:52:00,
2013-02-12 06:02:00,41.0,-99.9,29.87,NW,326,8.0,11.0,-999,-99.99,,,-99.99,,2013-02-12 11:02:00,
2013-02-12 06:11:00,39.0,-99.9,29.87,WNW,296,6.0,7.0,-999,-99.99,,,-99.99,,2013-02-12 11:11:00,
2013-02-12 06:22:00,39.0,-99.9,29.88,NW,314,6.0,8.0,-999,-99.99,,,-99.99,,2013-02-12 11:22:00,
2013-02-12 06:32:00,40.0,-99.9,29.88,NW,318,7.0,9.0,-999,-99.99,,,-99.99,,2013-02-12 11:32:00,
2013-02-12 06:42:00,40.0,-99.9,29.88,NW,310,6.0,9.0,-999,-99.99,,,-99.99,,2013-02-12 11:42:00,
2013-02-12 06:53:00,39.0,-99.9,29.89,WNW,286,4.0,5.0,-999,-99.99,,,-99.99,,2013-02-12 11:53:00,
2013-02-12 07:02:00,40.0,-99.9,29.89,WNW,298,5.0,8.0,-999,-99.99,,,-99.99,,2013-02-12 12:02:00,
2013-02-12 07:11:00,40.0,-99.9,29.90,West,279,6.0,6.0,-999,-99.99,,,-99.99,,2013-02-12 12:11:00,
2013-02-12 07:22:00,40.0,-99.9,29.90,WNW,282,7.0,8.0,-999,-99.99,,,-99.99,,2013-02-12 12:22:00,
2013-02-12 07:32:00,41.0,-99.9,29.91,NW,304,8.0,9.0,-999,-99.99,,,-99.99,,2013-02-12 12:32:00,
2013-02-12 07:42:00,41.0,-99.9,29.91,WNW,288,9.0,9.0,-999,-99.99,,,-99.99,,2013-02-12 12:42:00,
2013-02-12 07:53:00,41.0,-99.9,29.92,West,276,9.0,9.0,-999,-99.99,,,-99.99,,2013-02-12 12:53:00,
2013-02-12 08:02:00,42.0,-99.9,29.92,WNW,298,4.0,9.0,-999,-99.99,,,-99.99,,2013-02-12 13:02:00,
2013-02-12 08:11:00,41.0,-99.9,29.93,West,261,5.0,10.0,-999,-99.99,,,-99.99,,2013-02-12 13:11:00,
2013-02-12 08:22:00,42.0,-99.9,29.93,WNW,294,7.0,9.0,-999,-99.99,,,-99.99,,2013-02-12 13:22:00,
2013-02-12 08:32:00,41.0,-99.9,29.93,WNW,285,8.0,9.0,-999,-99.99,,,-99.99,,2013-02-12 13:32:00,
2013-02-12 08:42:00,41.0,-99.9,29.94,West,278,9.0,9.0,-999,-99.99,,,-99.99,,2013-02-12 13:42:00,
2013-02-12 08:52:00,41.0,-99.9,29.94,West,280,8.0,9.0,-999,-99.99,,,-99.99,,2013-02-12 13:52:00,
2013-02-12 09:01:00,41.0,-99.9,29.94,WNW,285,10.0,11.0,-999,-99.99,,,-99.99,,2013-02-12 14:01:00,
2013-02-12 09:12:00,43.0,-99.9,29.93,WNW,288,10.0,12.0,-999,-99.99,,,-99.99,,2013-02-12 14:12:00,
2013-02-12 09:22:00,43.0,-99.9,29.94,WNW,291,12.0,14.0,-999,-99.99,,,-99.99,,2013-02-12 14:22:00,
2013-02-12 09:32:00,43.0,-99.9,29.94,WNW,296,10.0,13.0,-999,-99.99,,,-99.99,,2013-02-12 14:32:00,
2013-02-12 09:42:00,44.0,-99.9,29.94,NW,310,8.0,12.0,-999,-99.99,,,-99.99,,2013-02-12 14:42:00,
2013-02-12 09:52:00,43.0,-99.9,29.94,NW,304,11.0,14.0,-999,-99.99,,,-99.99,,2013-02-12 14:52:00,
2013-02-12 10:02:00,44.0,-99.9,29.94,NW,306,11.0,14.0,-999,-99.99,,,-99.99,,2013-02-12 15:02:00,
2013-02-12 10:11:00,44.0,-99.9,29.94,NW,316,15.0,19.0,-999,-99.99,,,-99.99,,2013-02-12 15:11:00,
2013-02-12 10:22:00,43.0,-99.9,29.95,NW,306,11.0,13.0,-999,-99.99,,,-99.99,,2013-02-12 15:22:00,
2013-02-12 10:32:00,44.0,-99.9,29.94,NW,306,11.0,13.0,-999,-99.99,,,-99.99,,2013-02-12 15:32:00,
2013-02-12 10:42:00,43.0,-99.9,29.96,WNW,302,7.0,10.0,-999,-99.99,,,-99.99,,2013-02-12 15:42:00,
2013-02-12 10:52:00,44.0,-99.9,29.96,WNW,299,8.0,10.0,-999,-99.99,,,-99.99,,2013-02-12 15:52:00,
2013-02-12 11:02:00,44.0,-99.9,29.96,WNW,299,9.0,12.0,-999,-99.99,,,-99.99,,2013-02-12 16:02:00,
2013-02-12 11:11:00,46.0,-99.9,29.96,NW,316,9.0,14.0,-999,-99.99,,,-99.99,,2013-02-12 16:11:00,
2013-02-12 11:22:00,45.0,-99.9,29.97,NW,316,7.0,10.0,-999,-99.99,,,-99.99,,2013-02-12 16:22:00,
2013-02-12 11:32:00,45.0,-99.9,29.96,NNW,327,13.0,16.0,-999,-99.99,,,-99.99,,2013-02-12 16:32:00,
2013-02-12 11:42:00,44.0,-99.9,29.96,NW,325,12.0,15.0,-999,-99.99,,,-99.99,,2013-02-12 16:42:00,
2013-02-12 11:52:00,45.0,-99.9,29.97,NNW,328,12.0,15.0,-999,-99.99,,,-99.99,,2013-02-12 16:52:00,
2013-02-12 12:01:00,44.0,-99.9,29.97,NNW,327,12.0,16.0,-999,-99.99,,,-99.99,,2013-02-12 17:01:00,
2013-02-12 12:12:00,44.0,-99.9,29.97,NNW,338,12.0,17.0,-999,-99.99,,,-99.99,,2013-02-12 17:12:00,
2013-02-12 12:21:00,44.0,-99.9,29.96,NNW,340,10.0,14.0,-999,-99.99,,,-99.99,,2013-02-12 17:21:00,
2013-02-12 12:32:00,45.0,-99.9,29.96,NNW,335,12.0,17.0,-999,-99.99,,,-99.99,,2013-02-12 17:32:00,
2013-02-12 12:42:00,44.0,-99.9,29.96,NNW,342,10.0,16.0,-999,-99.99,,,-99.99,,2013-02-12 17:42:00,
2013-02-12 12:52:00,44.0,-99.9,29.96,NNW,338,11.0,15.0,-999,-99.99,,,-99.99,,2013-02-12 17:52:00,
2013-02-12 13:02:00,44.0,-99.9,29.96,NNW,332,11.0,14.0,-999,-99.99,,,-99.99,,2013-02-12 18:02:00,
2013-02-12 13:12:00,44.0,-99.9,29.96,NNW,331,13.0,16.0,-999,-99.99,,,-99.99,,2013-02-12 18:12:00,
2013-02-12 13:23:00,44.0,-99.9,29.96,NNW,334,9.0,13.0,-999,-99.99,,,-99.99,,2013-02-12 18:23:00,
2013-02-12 13:32:00,44.0,-99.9,29.96,NNW,338,10.0,15.0,-999,-99.99,,,-99.99,,2013-02-12 18:32:00,
2013-02-12 13:42:00,44.0,-99.9,29.95,NNW,333,11.0,15.0,-999,-99.99,,,-99.99,,2013-02-12 18:42:00,
2013-02-12 13:52:00,44.0,-99.9,29.95,NNW,335,11.0,15.0,-999,-99.99,,,-99.99,,2013-02-12 18:52:00,
2013-02-12 14:02:00,45.0,-99.9,29.95,NNW,331,12.0,16.0,-999,-99.99,,,-99.99,,2013-02-12 19:02:00,
2013-02-12 14:11:00,45.0,-99.9,29.94,NNW,335,11.0,15.0,-999,-99.99,,,-99.99,,2013-02-12 19:11:00,
2013-02-12 14:22:00,45.0,-99.9,29.94,NNW,347,11.0,15.0,-999,-99.99,,,-99.99,,2013-02-12 19:22:00,
2013-02-12 14:32:00,45.0,-99.9,29.93,NNW,344,12.0,18.0,-999,-99.99,,,-99.99,,2013-02-12 19:32:00,
2013-02-12 14:42:00,46.0,-99.9,29.92,NNW,342,7.0,14.0,-999,-99.99,,,-99.99,,2013-02-12 19:42:00,
2013-02-12 14:52:00,46.0,-99.9,29.91,NNW,345,4.0,10.0,-999,-99.99,,,-99.99,,2013-02-12 19:52:00,
2013-02-12 15:02:00,45.0,-99.9,29.91,North,355,8.0,11.0,-999,-99.99,,,-99.99,,2013-02-12 20:02:00,
2013-02-12 15:11:00,45.0,-99.9,29.90,North,358,6.0,11.0,-999,-99.99,,,-99.99,,2013-02-12 20:11:00,
2013-02-12 15:22:00,45.0,-99.9,29.90,North,354,8.0,12.0,-999,-99.99,,,-99.99,,2013-02-12 20:22:00,
2013-02-12 15:32:00,44.0,-99.9,29.89,North,350,10.0,13.0,-999,-99.99,,,-99.99,,2013-02-12 20:32:00,
2013-02-12 15:42:00,44.0,-99.9,29.88,North,3,8.0,11.0,-999,-99.99,,,-99.99,,2013-02-12 20:42:00,
2013-02-12 15:52:00,46.0,-99.9,29.87,North,2,8.0,12.0,-999,-99.99,,,-99.99,,2013-02-12 20:52:00,
2013-02-12 16:02:00,46.0,-99.9,29.85,North,2,8.0,14.0,-999,-99.99,,,-99.99,,2013-02-12 21:02:00,
2013-02-12 16:11:00,45.0,-99.9,29.88,NNW,346,9.0,13.0,-999,-99.99,,,-99.99,,2013-02-12 21:11:00,
2013-02-12 16:21:00,44.0,-99.9,29.91,NNW,335,6.0,11.0,-999,-99.99,,,-99.99,,2013-02-12 21:21:00,
2013-02-12 16:32:00,44.0,-99.9,29.91,NNW,339,5.0,9.0,-999,-99.99,,,-99.99,,2013-02-12 21:32:00,
2013-02-12 16:42:00,44.0,-99.9,29.92,NNW,334,5.0,7.0,-999,-99.99,,,-99.99,,2013-02-12 21:42:00,
2013-02-12 16:52:00,44.0,-99.9,29.92,NNW,329,6.0,8.0,-999,-99.99,,,-99.99,,2013-02-12 21:52:00,
2013-02-12 17:02:00,43.0,-99.9,29.94,NW,311,4.0,6.0,-999,-99.99,,,-99.99,,2013-02-12 22:02:00,
2013-02-12 17:12:00,43.0,-99.9,29.94,NNW,332,6.0,6.0,-999,-99.99,,,-99.99,,2013-02-12 22:12:00,
2013-02-12 17:22:00,42.0,-99.9,29.95,NW,313,4.0,6.0,-999,-99.99,,,-99.99,,2013-02-12 22:22:00,
2013-02-12 17:32:00,42.0,-99.9,29.95,NW,326,4.0,5.0,-999,-99.99,,,-99.99,,2013-02-12 22:32:00,
2013-02-12 17:42:00,43.0,-99.9,29.94,North,350,3.0,4.0,-999,-99.99,,,-99.99,,2013-02-12 22:42:00,
2013-02-12 17:52:00,44.0,-99.9,29.93,NNE,27,4.0,5.0,-999,-99.99,,,-99.99,,2013-02-12 22:52:00,
2013-02-12 18:02:00,44.0,-99.9,29.93,NNE,21,3.0,3.0,-999,-99.99,,,-99.99,,2013-02-12 23:02:00,
2013-02-12 18:12:00,44.0,-99.9,29.93,North,5,5.0,6.0,-999,-99.99,,,-99.99,,2013-02-12 23:12:00,
2013-02-12 18:22:00,43.0,-99.9,29.94,North,5,5.0,8.0,-999,-99.99,,,-99.99,,2013-02-12 23:22:00,
2013-02-12 18:32:00,42.0,-99.9,29.94,North,4,5.0,7.0,-999,-99.99,,,-99.99,,2013-02-12 23:32:00,
2013-02-12 18:42:00,43.0,-99.9,29.96,North,349,6.0,9.0,-999,-99.99,,,-99.99,,2013-02-12 23:42:00,
2013-02-12 18:52:00,42.0,-99.9,29.96,NNW,338,6.0,8.0,-999,-99.99,,,-99.99,,2013-02-12 23:52:00,
2013-02-12 19:02:00,42.0,-99.9,29.96,NNW,338,6.0,9.0,-999,-99.99,,,-99.99,,2013-02-13 00:02:00,
2013-02-12 19:11:00,42.0,-99.9,29.96,East,81,2.0,3.0,-999,-99.99,,,-99.99,,2013-02-13 00:11:00,
2013-02-12 19:22:00,42.0,-99.9,29.96,NE,49,-999.0,0.0,-999,-99.99,,,-99.99,,2013-02-13 00:22:00,
2013-02-12 19:32:00,41.0,-99.9,29.96,North,-999,-999.0,-999.0,-999,-99.99,,,-99.99,,2013-02-13 00:32:00,
2013-02-12 19:42:00,41.0,-99.9,29.97,NW,318,2.0,3.0,-999,-99.99,,,-99.99,,2013-02-13 00:42:00,
2013-02-12 19:52:00,41.0,-99.9,29.97,WNW,285,4.0,4.0,-999,-99.99,,,-99.99,,2013-02-13 00:52:00,
2013-02-12 20:01:00,42.0,-99.9,29.97,SW,225,5.0,6.0,-999,-99.99,,,-99.99,,2013-02-13 01:01:00,
2013-02-12 20:11:00,41.0,-99.9,29.97,SW,223,3.0,3.0,-999,-99.99,,,-99.99,,2013-02-13 01:11:00,
2013-02-12 20:22:00,39.0,-99.9,29.96,SSE,153,1.0,1.0,-999,-99.99,,,-99.99,,2013-02-13 01:22:00,
2013-02-12 20:32:00,40.0,-99.9,29.96,NE,52,1.0,2.0,-999,-99.99,,,-99.99,,2013-02-13 01:32:00,
2013-02-12 20:42:00,37.0,-99.9,29.96,SE,140,1.0,2.0,-999,-99.99,,,-99.99,,2013-02-13 01:42:00,
2013-02-12 20:52:00,38.0,-99.9,29.96,North,-999,-999.0,-999.0,-999,-99.99,,,-99.99,,2013-02-13 01:52:00,
2013-02-12 21:01:00,39.0,-99.9,29.96,ESE,112,0.0,1.0,-999,-99.99,,,-99.99,,2013-02-13 02:01:00,
2013-02-12 21:11:00,40.0,-99.9,29.96,SE,135,0.0,1.0,-999,-99.99,,,-99.99,,2013-02-13 02:11:00,
2013-02-12 21:22:00,38.0,-99.9,29.96,SE,125,1.0,2.0,-999,-99.99,,,-99.99,,2013-02-13 02:22:00,
2013-02-12 21:32:00,38.0,-99.9,29.96,East,80,2.0,3.0,-999,-99.99,,,-99.99,,2013-02-13 02:32:00,
2013-02-12 21:42:00,38.0,-99.9,29.95,ENE,57,1.0,2.0,-999,-99.99,,,-99.99,,2013-02-13 02:42:00,
2013-02-12 21:52:00,38.0,-99.9,29.95,ENE,61,2.0,3.0,-999,-99.99,,,-99.99,,2013-02-13 02:52:00,
2013-02-12 22:02:00,40.0,-99.9,29.95,East,87,1.0,2.0,-999,-99.99,,,-99.99,,2013-02-13 03:02:00,
2013-02-12 22:12:00,40.0,-99.9,29.95,NE,56,3.0,5.0,-999,-99.99,,,-99.99,,2013-02-13 03:12:00,
2013-02-12 22:22:00,39.0,-99.9,29.94,ENE,63,2.0,3.0,-999,-99.99,,,-99.99,,2013-02-13 03:22:00,
2013-02-12 22:32:00,40.0,-99.9,29.94,NE,53,2.0,3.0,-999,-99.99,,,-99.99,,2013-02-13 03:32:00,
2013-02-12 22:42:00,38.0,-99.9,29.95,East,82,1.0,2.0,-999,-99.99,,,-99.99,,2013-02-13 03:42:00,
2013-02-12 22:52:00,39.0,-99.9,29.95,East,93,3.0,4.0,-999,-99.99,,,-99.99,,2013-02-13 03:52:00,
2013-02-12 23:01:00,40.0,-99.9,29.95,SE,129,1.0,2.0,-999,-99.99,,,-99.99,,2013-02-13 04:01:00,
2013-02-12 23:11:00,39.0,-99.9,29.96,ESE,120,2.0,2.0,-999,-99.99,,,-99.99,,2013-02-13 04:11:00,
2013-02-12 23:22:00,38.0,-99.9,29.96,ESE,111,1.0,1.0,-999,-99.99,,,-99.99,,2013-02-13 04:22:00,
2013-02-12 23:32:00,38.0,-99.9,29.96,SE,129,1.0,1.0,-999,-99.99,,,-99.99,,2013-02-13 04:32:00,
2013-02-12 23:42:00,37.0,-99.9,29.95,ESE,115,1.0,2.0,-999,-99.99,,,-99.99,,2013-02-13 04:42:00,
2013-02-12 23:52:00,38.0,-99.9,29.95,North,-999,-999.0,-999.0,-999,-99.99,,,-99.99,,2013-02-13 04:52:00,